Terminal Aerodrome Forecast
Issued by NWS

Home | Current Version | Previous Version | Text Only | Print | Product List | Glossary On
Versions: 1 2 3 4 5 6 7 8 9 10 11 12 13 14 15 16 17 18 19 20 21 22 23 24 25 26 27 28 29 30 31 32 33 34 35 36 37
000
FTUS45 KPSR 050539
TAFIWA
TAF
KIWA 050539Z 0506/0606 12006KT P6SM SCT100 BKN150
     FM050900 13007KT P6SM VCSH SCT070 BKN100 OVC150
     FM051800 17006KT P6SM FEW080 SCT120 SCT150
     FM052100 25008KT P6SM SCT100
      AMD LTD TO CLD VIS AND WIND TIL 051300=

USA.gov is the U.S. government's official web portal to all federal, state and local government web resources and services.